Temp
79 83 92 94 92 87 88 92 87 89 90 92 92 89 87 90 97 89 88 80 80 81 83 83 83 83 82 82 82 82 83 82 81 82 82 83 82 82 82 82 82 82 82
87 89 92 93 93 85 85 88 88 85 90 97 92 91 91 90 94 94 90 84 81 81 82 83 83 83 83 83 83 83 82 82 82 82 82 81 82 82 82 82 82 81 81
87 89 93 87 93 84 92 91 92 88 88 95 93 92 93 90 94 94 94 91 85 81 82 83 83 82 83 83 83 82 81 81 82 82 81 81 82 81 81 81 81 81 81
88 87 92 91 91 90 92 93 86 85 85 88 83 86 86 88 93 93 96 94 91 90 83 82 82 82 82 83 82 82 82 81 81 81 81 81 81 81 81 81 81 80 80
88 89 91 84 91 87 81 90 94 92 86 84 92 93 84 90 93 96 95 95 95 93 90 82 81 81 82 83 82 82 82 81 81 81 81 81 81 81 81 80 80 80 80
89 88 94 90 91 88 90 95 89 92 89 93 89 91 85 92 90 94 94 97 95 95 95 87 85 85 81 83 82 82 82 81 81 81 80 80 80 80 80 80 79 79 79
90 88 93 91 90 87 87 90 91 89 80 94 90 88 88 94 94 89 95 96 93 95 95 92 90 92 86 81 81 82 82 82 81 81 81 80 80 80 79 79 79 79 79
89 89 85 89 88 92 89 87 88 90 92 92 87 75 75 87 82 86 88 90 92 96 95 94 94 91 91 88 86 81 81 82 82 82 81 80 80 79 79 79 78 78 79
90 89 88 87 89 90 91 88 86 88 83 92 88 86 80 68 82 92 91 91 92 93 95 94 94 94 93 93 88 84 81 80 82 82 82 81 80 79 79 79 78 78 78
91 91 90 90 88 91 90 90 91 85 88 88 91 93 89 86 79 75 86 87 93 87 87 91 94 94 92 92 91 87 80 79 80 81 82 82 81 80 80 79 79 78 78
90 92 89 90 88 89 90 89 89 87 91 90 90 91 89 90 88 83 68 87 92 88 92 94 91 94 93 93 94 87 79 78 79 79 80 81 81 81 81 81 80 79 79
90 90 91 89 88 87 88 90 89 89 87 88 89 91 86 88 77 80 83 82 76 84 87 89 86 87 89 94 92 84 79 78 78 78 78 79 80 81 82 82 82 81 80
93 90 90 88 88 86 89 90 87 86 87 88 87 91 94 92 91 74 78 82 68 75 88 96 96 89 90 87 89 86 79 77 76 76 76 76 78 79 80 81 81 82 81
93 91 90 91 89 90 90 89 90 89 88 88 87 88 92 95 96 94 84 75 80 81 77 72 95 94 95 90 84 81 88 75 75 74 74 74 75 76 77 78 79 79 79
87 90 90 90 91 90 90 89 89 88 87 88 88 89 89 95 95 94 94 87 81 72 69 84 84 93 94 96 90 92 91 77 74 74 73 73 73 74 75 76 76 76 76
88 81 90 90 90 89 89 89 89 89 87 89 91 89 88 93 94 94 93 86 87 86 78 88 86 91 91 95 85 93 93 78 74 73 72 72 72 73 74 74 74 74 74
86 88 88 89 89 88 89 86 87 87 85 87 88 88 87 88 90 94 94 85 89 82 87 92 88 88 90 90 91 92 92 92 90 72 72 71 71 71 72 72 72 72 72
88 88 88 85 86 87 83 86 86 89 85 87 88 88 88 92 85 86 90 87 89 90 88 85 90 89 89 90 91 89 91 96 91 75 71 71 70 70 70 70 70 69 69
88 90 89 85 85 87 85 87 85 87 88 89 89 88 88 88 86 88 85 89 89 89 89 87 88 88 83 85 84 89 88 87 93 78 71 70 69 69 68 67 67 66 65
85 88 89 87 87 87 89 89 88 86 87 89 90 89 89 88 86 85 83 83 87 85 88 88 88 90 87 84 86 89 87 87 88 95 83 84 76 70 69 67 67 66 63
87 88 87 88 88 89 90 89 88 88 81 86 88 90 90 87 81 81 88 85 84 84 88 86 86 82 82 85 79 81 84 92 93 95 92 94 88 87 85 69 75 69 66
86 86 86 87 86 91 80 76 81 89 89 86 85 88 89 83 81 75 73 73 75 80 80 85 87 87 84 88 92 88 82 76 76 85 90 84 87 85 95 94 79 73 66
85 84 85 86 85 87 74 71 74 89 88 88 84 85 88 95 83 88 74 72 72 70 71 81 81 82 82 85 85 82 83 84 83 88 85 84 89 83 89 94 70 68 65
83 84 84 85 85 87 73 70 71 85 87 87 86 84 85 89 88 85 86 85 84 85 83 85 84 84 85 85 82 81 80 80 83 86 85 76 86 87 92 83 67 66 63
83 83 85 84 83 85 69 68 71 85 85 85 87 88 88 87 78 70 83 83 82 83 79 73 74 70 68 68 73 83 78 75 74 74 79 80 86 84 87 88 76 66 63
83 85 84 85 80 84 70 66 70 86 85 87 86 84 74 78 70 65 78 82 80 82 84 85 84 74 70 74 66 80 83 75 74 76 82 80 83 82 79 87 85 79 70
MSLP
1017.36 1016.76 1015.79 1015.56 1015.78 1015.87 1015.52 1015.45 1015.96 1015.90 1015.87 1015.65 1015.81 1016.09 1016.49 1016.16 1015.08 1015.78 1017.18 1018.16 1018.69 1018.87 1019.13 1019.37 1019.57 1019.96 1020.51 1020.92 1021.26 1021.67 1021.91 1022.30 1022.59 1022.76 1022.84 1023.03 1023.14 1023.31 1023.43 1023.57 1023.71 1023.84 1023.90
1016.68 1016.22 1015.88 1015.79 1015.92 1016.24 1015.90 1015.73 1015.77 1015.97 1015.63 1015.26 1015.93 1015.91 1015.96 1015.98 1015.90 1015.69 1016.85 1018.21 1018.73 1018.90 1019.11 1019.49 1019.75 1020.03 1020.31 1020.63 1020.99 1021.35 1021.65 1021.99 1022.24 1022.52 1022.70 1022.78 1022.95 1023.11 1023.21 1023.29 1023.41 1023.53 1023.60
1016.69 1016.27 1015.70 1015.76 1015.77 1016.30 1016.05 1016.08 1015.56 1015.83 1015.57 1015.07 1015.60 1015.84 1015.51 1015.78 1015.86 1015.89 1015.98 1017.36 1018.61 1019.11 1019.12 1019.34 1019.63 1019.97 1020.26 1020.51 1020.79 1021.11 1021.38 1021.73 1021.96 1022.25 1022.44 1022.62 1022.70 1022.83 1022.90 1022.99 1023.09 1023.18 1023.29
1016.57 1016.66 1015.79 1016.08 1015.98 1015.90 1015.54 1015.61 1015.48 1015.60 1015.44 1015.28 1015.41 1015.56 1015.68 1015.69 1015.99 1016.12 1015.59 1016.56 1017.50 1018.05 1019.11 1019.32 1019.51 1019.84 1020.08 1020.27 1020.56 1020.84 1021.14 1021.42 1021.66 1021.94 1022.16 1022.35 1022.43 1022.49 1022.58 1022.64 1022.73 1022.81 1022.93
1016.67 1016.30 1015.51 1015.93 1016.13 1015.73 1015.95 1015.20 1015.45 1015.51 1015.38 1015.23 1015.07 1015.18 1015.78 1015.53 1015.89 1015.63 1015.78 1015.92 1016.41 1017.14 1018.06 1019.02 1019.40 1019.69 1019.87 1020.08 1020.33 1020.53 1020.84 1021.19 1021.45 1021.58 1021.83 1022.03 1022.12 1022.21 1022.34 1022.40 1022.47 1022.54 1022.61
1016.28 1016.43 1015.37 1015.53 1015.94 1015.43 1015.38 1015.27 1015.97 1015.58 1015.37 1014.78 1014.99 1014.74 1015.59 1015.31 1015.57 1015.68 1016.03 1015.76 1016.25 1016.29 1016.73 1018.32 1019.12 1019.40 1019.82 1019.96 1020.12 1020.33 1020.59 1020.90 1021.15 1021.34 1021.53 1021.71 1021.86 1021.98 1022.07 1022.13 1022.18 1022.23 1022.31
1015.90 1016.18 1015.18 1015.77 1016.10 1015.73 1015.88 1016.06 1015.91 1015.46 1015.82 1015.25 1014.90 1014.90 1015.28 1015.42 1015.57 1015.57 1015.35 1015.40 1016.36 1016.54 1016.41 1017.30 1017.90 1017.98 1019.13 1019.63 1019.91 1020.17 1020.38 1020.60 1020.82 1021.05 1021.22 1021.36 1021.50 1021.65 1021.76 1021.80 1021.84 1021.91 1021.99
1015.91 1015.93 1015.87 1015.65 1015.96 1015.56 1016.16 1016.49 1016.28 1015.43 1014.95 1015.44 1014.93 1015.69 1015.06 1015.29 1015.43 1015.40 1015.57 1015.45 1015.80 1015.93 1016.08 1016.73 1016.68 1017.09 1017.60 1018.66 1019.10 1019.76 1020.06 1020.21 1020.41 1020.65 1020.86 1021.02 1021.16 1021.30 1021.43 1021.46 1021.48 1021.59 1021.64
1015.60 1015.79 1015.91 1015.83 1015.96 1015.87 1015.79 1016.45 1016.52 1015.79 1015.29 1015.30 1015.80 1015.35 1015.07 1015.57 1014.89 1015.07 1015.43 1015.33 1015.50 1015.40 1015.64 1016.19 1016.52 1016.73 1016.99 1017.24 1018.11 1019.09 1019.58 1019.88 1020.02 1020.21 1020.43 1020.68 1020.83 1020.93 1021.03 1021.10 1021.13 1021.19 1021.28
1015.11 1015.37 1015.63 1015.76 1016.01 1015.89 1015.60 1016.07 1016.16 1016.38 1015.83 1014.97 1015.21 1015.28 1015.68 1015.69 1015.45 1015.46 1014.83 1014.93 1015.10 1015.25 1015.37 1015.57 1015.88 1016.33 1016.80 1017.04 1017.22 1017.84 1018.72 1019.27 1019.63 1019.85 1020.00 1020.19 1020.38 1020.51 1020.59 1020.63 1020.63 1020.73 1020.87
1014.96 1014.97 1015.53 1015.53 1016.06 1016.07 1015.89 1015.96 1016.14 1016.23 1015.90 1015.46 1014.85 1014.90 1015.32 1015.12 1015.13 1014.57 1014.75 1014.05 1014.53 1014.67 1014.51 1014.93 1014.99 1015.41 1016.21 1016.55 1016.60 1017.22 1018.07 1018.72 1019.13 1019.36 1019.58 1019.74 1019.88 1019.96 1020.02 1020.02 1020.05 1020.16 1020.35
1014.78 1014.83 1015.05 1015.38 1015.84 1016.00 1015.90 1015.90 1016.06 1016.17 1016.16 1015.93 1015.60 1015.26 1014.72 1014.68 1015.19 1014.81 1014.89 1015.29 1015.29 1015.16 1014.74 1014.71 1014.92 1015.06 1015.43 1015.95 1016.24 1016.49 1017.21 1017.87 1018.49 1018.92 1019.17 1019.35 1019.52 1019.58 1019.56 1019.51 1019.55 1019.69 1019.83
1013.52 1014.26 1014.81 1015.26 1015.65 1015.74 1015.49 1015.58 1016.09 1016.18 1016.21 1016.03 1015.92 1015.24 1014.80 1014.53 1014.14 1015.07 1015.60 1016.01 1015.57 1016.14 1015.34 1014.69 1014.63 1014.88 1014.94 1015.36 1015.69 1016.23 1017.21 1017.66 1018.06 1018.43 1018.71 1018.89 1019.05 1019.17 1019.21 1019.20 1019.20 1019.22 1019.28
1013.03 1013.58 1014.50 1014.65 1014.95 1014.97 1015.32 1015.45 1015.77 1015.92 1015.69 1015.93 1015.95 1015.64 1014.96 1014.19 1013.98 1013.78 1014.65 1015.92 1015.78 1015.17 1015.65 1016.07 1014.44 1015.22 1014.81 1014.92 1015.52 1016.01 1016.56 1017.23 1017.58 1017.95 1018.27 1018.47 1018.62 1018.76 1018.85 1018.87 1018.89 1018.90 1018.89
1012.83 1013.40 1014.11 1014.42 1014.50 1014.80 1014.97 1015.29 1015.51 1015.47 1015.78 1015.82 1015.60 1015.52 1015.49 1014.52 1014.20 1014.23 1014.06 1014.39 1015.29 1015.05 1015.13 1014.01 1014.72 1014.59 1014.32 1014.55 1015.13 1015.70 1015.92 1016.48 1016.86 1017.24 1017.54 1017.79 1017.96 1018.11 1018.28 1018.39 1018.41 1018.43 1018.46
1012.96 1013.22 1013.49 1014.03 1014.35 1014.72 1014.93 1015.02 1014.88 1015.14 1015.51 1015.44 1015.13 1015.14 1015.42 1014.76 1014.56 1014.47 1014.36 1014.09 1014.12 1014.01 1013.90 1013.90 1014.20 1014.01 1014.22 1014.18 1014.90 1015.19 1015.28 1015.66 1016.44 1016.75 1016.98 1017.23 1017.39 1017.53 1017.69 1017.84 1017.93 1017.97 1018.04
1012.98 1013.24 1013.64 1013.85 1013.94 1014.36 1014.48 1014.80 1014.95 1015.00 1015.37 1015.29 1015.08 1015.18 1015.27 1015.32 1015.01 1014.37 1014.34 1014.47 1014.28 1014.39 1013.99 1013.44 1013.84 1013.89 1014.40 1014.76 1014.84 1015.03 1015.02 1015.10 1015.03 1015.70 1016.09 1016.52 1016.78 1016.94 1017.08 1017.20 1017.29 1017.41 1017.52
1012.94 1013.26 1013.63 1014.03 1014.14 1014.22 1014.40 1014.42 1014.73 1014.42 1014.86 1014.69 1014.82 1014.86 1014.86 1014.77 1015.24 1015.23 1014.86 1014.70 1014.37 1014.25 1014.33 1013.98 1013.88 1014.01 1014.22 1014.36 1014.64 1014.84 1014.78 1014.35 1013.93 1014.78 1015.52 1015.94 1016.11 1016.38 1016.60 1016.78 1016.87 1017.02 1017.14
1012.54 1012.65 1013.07 1013.71 1013.80 1013.85 1013.97 1014.14 1014.59 1014.43 1014.34 1014.19 1014.32 1014.44 1014.59 1014.66 1014.74 1014.73 1015.00 1014.37 1014.62 1014.62 1014.32 1014.38 1014.02 1013.94 1013.97 1014.18 1014.49 1014.52 1014.46 1014.53 1014.10 1013.92 1014.61 1015.08 1015.33 1015.63 1015.95 1016.11 1016.18 1016.34 1016.46
1012.02 1012.14 1012.37 1012.76 1013.15 1013.41 1013.40 1013.47 1013.74 1014.01 1014.10 1013.97 1013.94 1014.12 1014.14 1014.33 1014.50 1014.66 1014.84 1014.59 1014.45 1014.53 1014.08 1014.12 1013.80 1013.41 1013.38 1013.47 1013.75 1013.69 1013.84 1013.82 1013.48 1012.61 1013.69 1013.82 1014.29 1014.47 1014.52 1014.73 1015.03 1015.32 1015.52
1011.24 1011.66 1011.87 1012.02 1012.50 1012.62 1012.89 1013.00 1013.23 1013.43 1013.86 1013.80 1013.63 1013.57 1013.74 1013.93 1014.04 1014.35 1014.36 1014.15 1014.18 1014.36 1013.96 1013.67 1013.58 1013.47 1013.02 1013.11 1013.50 1013.56 1013.27 1012.84 1012.58 1012.75 1012.77 1012.71 1013.17 1013.36 1013.54 1014.03 1013.85 1014.08 1014.41
1010.32 1010.87 1011.23 1011.50 1011.86 1011.86 1011.79 1012.31 1012.83 1012.66 1012.78 1013.07 1013.34 1013.18 1013.26 1013.45 1013.82 1014.13 1014.38 1014.40 1014.71 1014.62 1014.32 1013.88 1013.11 1012.72 1012.99 1013.00 1012.90 1013.21 1013.39 1013.65 1013.27 1012.87 1012.59 1012.77 1012.45 1012.51 1011.82 1011.93 1012.08 1012.80 1013.30
1009.95 1010.12 1010.38 1010.73 1011.06 1011.30 1011.39 1011.90 1012.26 1012.38 1012.45 1012.41 1012.72 1012.93 1012.92 1012.28 1012.61 1013.14 1013.69 1014.04 1014.18 1014.29 1014.34 1014.17 1013.91 1013.53 1013.34 1013.32 1013.48 1013.61 1013.45 1013.48 1013.29 1012.88 1012.83 1012.83 1012.71 1012.59 1011.96 1011.51 1012.26 1012.97 1013.70
1009.29 1009.59 1009.80 1009.99 1010.32 1010.59 1011.00 1011.41 1011.88 1012.18 1012.08 1012.06 1012.04 1012.22 1012.36 1012.15 1012.24 1012.59 1012.95 1013.36 1013.52 1013.39 1013.48 1013.56 1013.44 1013.31 1013.24 1013.39 1013.61 1013.62 1013.69 1013.76 1013.50 1013.10 1012.73 1012.83 1012.46 1011.96 1011.74 1012.51 1013.07 1013.25 1013.61
1008.62 1008.79 1009.10 1009.40 1009.50 1009.78 1010.17 1010.72 1011.35 1011.52 1011.42 1011.48 1011.53 1011.50 1011.48 1011.73 1012.13 1012.49 1012.94 1012.92 1013.00 1012.59 1012.01 1012.33 1012.44 1012.74 1012.87 1013.05 1013.22 1013.31 1013.30 1013.51 1013.36 1013.16 1012.83 1012.53 1012.10 1012.17 1012.20 1012.14 1013.09 1013.47 1013.78
1007.76 1008.11 1008.23 1008.44 1008.70 1008.86 1009.29 1009.89 1010.54 1010.68 1010.48 1010.58 1010.65 1011.20 1011.34 1011.63 1011.94 1012.16 1012.52 1012.51 1012.49 1012.18 1012.00 1012.11 1012.62 1012.94 1012.92 1012.80 1013.20 1012.88 1012.65 1012.91 1013.11 1013.03 1012.81 1012.95 1012.38 1012.66 1012.42 1012.15 1012.49 1013.05 1013.89
Wind_Speed
5 5 3 6 4 4 4 2 4 1 2 5 2 4 2 6 0 6 9 18 15 13 14 14 15 15 16 17 17 17 16 15 15 13 12 12 11 11 9 8 8 9 9
6 8 5 7 4 4 5 2 3 1 4 2 4 4 4 8 3 2 11 10 14 14 14 15 15 14 15 16 17 17 16 16 14 14 13 12 11 11 10 10 9 10 10
9 6 4 4 4 5 1 4 5 3 6 2 2 6 5 4 7 4 11 10 11 14 15 15 14 14 15 15 16 16 16 14 14 15 14 12 11 11 11 11 11 11 11
7 7 3 5 4 7 5 4 2 3 2 1 2 4 3 6 6 5 7 11 11 10 12 14 13 14 15 14 15 15 15 15 15 15 13 12 13 12 11 11 11 11 10
9 8 5 4 3 6 4 1 2 3 3 5 2 7 3 4 8 9 6 9 12 13 10 14 14 13 15 16 15 15 17 17 16 14 14 13 12 12 12 11 11 11 11
9 7 6 2 6 3 4 2 4 4 3 4 4 3 5 6 5 7 7 7 7 6 13 13 11 11 14 15 14 14 16 17 15 14 13 12 12 12 12 12 12 12 12
10 8 8 7 5 4 4 2 4 7 7 2 4 5 6 4 4 4 8 7 9 7 13 13 10 9 10 14 14 14 16 17 16 15 14 13 13 13 13 12 12 12 12
7 9 2 4 5 4 2 2 5 8 2 3 3 8 1 6 3 3 4 4 9 9 7 9 10 12 12 10 13 15 15 16 16 16 15 14 13 13 13 12 12 12 12
10 6 6 5 4 6 7 4 5 7 5 2 3 3 2 1 5 5 5 4 5 6 8 8 9 8 6 10 14 15 15 13 14 15 15 14 14 14 13 13 12 12 12
9 10 8 7 4 5 3 4 7 4 5 0 2 2 3 3 4 3 8 7 8 6 7 7 9 9 10 7 11 14 20 16 15 15 15 15 15 14 14 14 13 12 12
9 9 9 7 6 7 4 6 2 3 4 6 1 2 1 4 6 4 5 7 8 6 6 7 7 9 10 9 9 11 18 17 16 15 15 14 14 15 15 14 13 12 12
10 11 12 8 7 6 4 5 4 4 5 5 7 3 4 2 4 4 3 2 5 9 3 6 4 5 7 9 10 11 20 19 16 14 13 13 13 14 15 14 13 13 13
9 12 9 10 8 8 7 6 5 4 4 5 4 7 1 5 1 5 3 1 6 10 1 1 4 4 5 7 8 11 15 13 13 13 13 12 13 13 13 13 13 13 14
8 12 11 10 10 8 9 6 6 7 7 6 7 6 9 3 4 3 3 5 4 2 2 13 5 5 5 4 4 12 10 14 13 13 13 12 12 12 12 12 12 12 12
2 12 12 10 10 9 8 7 8 7 3 6 6 7 6 4 3 4 4 2 2 5 3 9 4 6 6 7 8 8 9 16 16 15 15 14 14 13 13 13 13 12 12
6 7 10 10 11 9 9 8 8 8 6 7 8 5 6 5 3 4 3 5 4 7 4 2 4 7 3 2 10 8 9 13 12 14 14 14 13 14 14 14 13 13 12
6 6 8 10 10 10 10 9 9 6 8 8 8 7 6 6 8 3 5 3 4 3 8 1 7 7 5 5 5 5 7 9 10 19 17 15 14 14 14 15 14 14 13
9 11 11 10 9 11 9 10 11 9 11 9 10 8 9 8 7 6 6 5 4 4 7 5 5 2 5 8 6 5 6 9 5 15 13 15 14 14 13 14 13 12 12
12 13 12 11 11 13 11 10 10 11 11 9 10 9 9 8 6 6 8 5 7 7 7 7 6 6 3 5 5 7 6 8 8 13 18 16 16 15 14 14 14 14 15
13 13 12 12 12 13 12 12 11 10 10 11 9 10 9 9 8 7 7 6 6 6 6 6 7 7 5 2 5 5 6 8 8 7 10 14 16 18 19 19 17 17 16
14 13 13 12 12 11 10 11 10 11 10 11 11 10 12 10 8 7 8 8 7 7 8 7 9 8 5 3 2 3 5 6 4 6 5 6 9 10 11 16 16 20 16
14 15 14 14 14 13 13 13 9 10 10 11 10 11 11 6 8 8 8 10 6 7 7 9 9 8 4 3 5 4 4 4 4 3 3 4 6 6 8 5 14 14 18
13 14 15 14 14 13 8 9 10 12 11 10 10 10 12 12 14 12 15 14 12 11 11 9 9 9 9 6 5 6 6 6 7 8 4 7 7 6 6 6 7 7 7
14 14 15 15 14 13 12 12 12 12 11 12 12 13 14 11 10 9 10 9 11 12 13 12 13 13 11 8 5 6 6 6 6 8 8 7 8 7 5 5 9 12 11
13 14 14 15 16 15 14 15 11 13 13 13 12 13 12 11 12 5 9 11 10 12 12 15 12 6 5 7 6 7 6 4 5 5 4 5 7 5 7 7 7 10 12
13 13 15 15 16 15 14 16 15 12 12 11 12 13 13 14 9 9 11 12 11 12 11 11 10 6 8 8 7 9 8 6 6 6 0 4 4 5 6 6 5 7 8
Wind_Direction
250 239 240 275 68 287 249 116 312 185 204 259 229 181 104 234 309 108 132 156 173 186 184 189 196 200 206 213 218 221 222 217 220 219 217 217 221 217 223 225 235 249 253
240 236 188 222 157 298 291 41 328 289 252 248 198 194 162 214 201 70 126 152 173 181 179 182 184 194 202 209 213 215 218 219 216 218 222 222 222 226 227 234 243 246 248
237 297 218 279 121 250 9 234 243 254 263 219 197 184 207 198 125 232 134 138 167 193 192 188 194 195 201 204 207 209 213 211 209 213 217 222 223 226 229 233 239 246 249
226 234 172 220 129 259 182 228 193 199 275 277 165 193 203 172 127 192 150 149 167 167 188 196 187 192 203 208 214 220 212 208 209 213 218 219 223 224 229 231 237 243 244
213 252 193 164 161 256 156 267 103 301 288 217 189 155 203 165 174 184 128 171 167 158 178 177 183 198 205 210 216 217 211 209 209 209 215 218 222 229 229 234 238 243 245
213 219 198 92 236 224 202 272 356 345 295 343 241 130 165 153 193 129 161 193 145 183 154 167 181 194 206 211 205 204 203 205 208 212 215 221 232 235 235 237 238 240 240
193 203 240 166 245 284 39 9 247 224 283 127 240 204 159 161 183 167 174 170 160 175 158 162 186 190 184 203 202 207 208 209 212 217 224 230 235 237 238 238 239 240 241
188 221 267 194 190 199 122 288 292 292 128 37 297 176 146 174 175 125 204 190 171 182 173 188 219 160 170 186 195 202 211 216 212 218 224 228 231 234 235 235 236 239 242
190 217 207 268 189 299 175 193 255 306 272 133 335 308 344 69 155 163 164 205 177 189 181 190 199 179 204 191 171 188 198 206 215 217 222 224 227 232 235 237 237 239 241
198 185 193 201 224 248 40 192 233 251 288 275 167 143 360 340 75 264 173 181 188 204 190 188 190 193 191 221 184 182 185 196 208 218 224 225 224 228 233 234 235 237 240
207 210 182 201 191 238 180 272 138 265 260 307 244 143 196 201 201 235 334 182 190 200 191 203 197 189 190 204 213 174 175 193 204 214 225 231 231 230 234 236 234 232 235
191 196 192 189 202 231 182 215 232 228 288 335 326 309 274 195 42 285 198 314 77 278 180 185 198 183 174 198 230 146 171 184 196 208 217 228 236 239 241 242 238 235 235
179 167 196 190 199 218 220 214 197 253 227 265 269 298 220 286 215 168 121 346 66 255 152 163 207 183 188 182 205 159 172 183 195 205 216 222 229 235 237 241 244 243 238
192 156 185 201 220 199 216 202 221 227 209 206 245 274 304 279 229 246 165 146 274 222 113 163 187 216 234 192 82 165 181 190 197 206 214 222 228 232 235 236 237 239 243
196 153 182 214 207 215 209 209 233 195 220 230 198 234 252 262 330 311 304 154 208 277 123 238 119 233 184 196 169 194 220 188 198 202 208 213 218 221 225 229 231 232 234
218 251 178 200 213 201 226 210 248 182 213 238 243 169 266 270 266 228 254 287 178 279 306 91 53 148 181 276 146 218 232 156 195 202 208 213 216 219 222 226 230 231 231
218 243 195 219 212 215 209 215 235 278 220 224 269 188 213 270 279 262 224 275 297 295 274 138 207 129 152 233 180 205 217 220 199 197 202 209 215 219 222 225 227 228 228
206 203 219 227 229 226 236 208 224 222 231 219 236 241 226 228 198 270 270 279 294 320 299 337 306 230 193 181 230 221 243 281 243 190 191 210 213 221 227 231 232 234 234
215 220 211 216 225 227 217 228 223 243 257 234 234 228 233 229 228 231 241 228 211 227 210 236 260 234 140 216 176 227 214 233 265 170 193 204 205 211 220 226 230 231 233
211 215 225 209 216 229 229 222 226 223 245 251 234 246 237 238 227 233 236 230 246 264 265 261 264 264 220 177 190 273 226 211 233 226 190 211 200 210 214 218 221 225 230
204 215 217 224 223 215 232 235 229 235 207 244 257 230 235 242 244 235 256 222 247 223 240 215 229 234 227 171 202 320 282 296 269 234 251 263 193 216 221 229 236 227 227
207 204 217 217 212 228 206 191 223 237 234 233 245 248 248 233 230 227 253 283 283 288 268 288 295 294 332 275 253 324 354 338 291 34 279 258 347 325 309 235 201 216 205
213 213 207 214 218 230 223 184 202 234 248 256 222 235 257 247 211 218 214 227 243 239 242 266 274 277 295 287 280 288 269 284 281 296 299 285 267 262 265 348 87 114 103
213 216 216 212 216 222 216 207 192 233 242 248 259 230 236 257 274 221 248 227 236 241 229 231 238 254 257 270 265 268 274 285 282 275 267 262 279 270 316 108 94 117 120
216 217 216 216 215 222 204 204 196 234 237 240 245 252 252 241 249 263 253 249 248 247 221 214 229 244 203 193 230 237 228 233 259 259 296 306 278 320 307 290 122 110 103
217 221 220 219 220 221 199 194 195 226 228 232 226 237 247 252 250 198 223 236 247 255 259 237 218 218 214 205 197 235 249 242 245 269 208 284 311 321 297 270 141 163 134